Clarksburg, WV

5:12 PM EST on February 24, 2018 (GMT -0500)
Benedum

Weather History for KCKB - June, 2013

Change the Weather History Date:

Sunday, June 30, 2013

  Actual Average Record
Temperature  
Mean Temperature 73 °F -  
Max Temperature 84 °F 83 °F 98 °F (1969)
Min Temperature 62 °F 58 °F 44 °F (1988)
Cooling Degree Days 8    
Growing Degree Days 23 (Base 50)    
Moisture  
Dew Point 63 °F    
Average Humidity 70    
Maximum Humidity 93    
Minimum Humidity 44    
Precipitation  
Precipitation 0.00 in - - ()
Sea Level Pressure  
Sea Level Pressure 29.73 in    
Wind  
Wind Speed 4 mph (NW)    
Max Wind Speed 9 mph    
Max Gust Speed -    
Visibility 9 miles    
Events      
Averages and records for this station are not official NWS values.
T = Trace of Precipitation, MM = Missing Value Source: NWS Daily Summary

Daily Weather History Graph

Daily Weather History Graph

Search for Another Location

Airport or City:

Trip Planner

Search our weather history database for the weather conditions in past years. The results will help you decide how hot, cold, wet, or windy it might be!

Date:

Astronomy

Jun. 30, 2013 Rise Set
Actual Time 5:57 AM EDT 8:51 PM EDT
Civil Twilight 5:25 AM EDT 9:23 PM EDT
Nautical Twilight 4:44 AM EDT 10:04 PM EDT
Astronomical Twilight 3:57 AM EDT 10:50 PM EDT
Moon 12:53 AM EDT (6/30) 2:06 PM EDT (6/30)
Length of Visible Light 15h 58m
Length of Day
14h 53m
Last Quarter, 45% of the Moon is Illuminated
Jun 30
Last Quarter
Jul 8
New
Jul 15
First Quarter
Jul 22
Full
Jul 29
Last Quarter

Hourly Weather History & Observations

Time (EDT) Temp. Heat Index Dew Point Humidity Pressure Visibility Wind Dir Wind Speed Gust Speed Precip Events Conditions
12:53 AM 66.9 °F - 64.0 °F 90% 29.69 in 10.0 mi SE 5.8 mph - N/A   Mostly Cloudy
1:53 AM 66.9 °F - 63.0 °F 87% 29.69 in 10.0 mi Calm Calm - N/A   Mostly Cloudy
2:53 AM 64.0 °F - 62.1 °F 93% 29.68 in 9.0 mi Calm Calm - N/A   Clear
3:53 AM 63.0 °F - 61.0 °F 93% 29.68 in 9.0 mi Calm Calm - N/A   Clear
4:53 AM 63.0 °F - 61.0 °F 93% 29.69 in 6.0 mi Calm Calm - N/A   Partly Cloudy
5:53 AM 62.1 °F - 60.1 °F 93% 29.71 in 5.0 mi Calm Calm - N/A   Clear
6:53 AM 63.0 °F - 60.1 °F 90% 29.73 in 5.0 mi Calm Calm - N/A   Clear
7:53 AM 66.9 °F - 62.1 °F 84% 29.74 in 10.0 mi Calm Calm - N/A   Clear
8:53 AM 71.1 °F - 63.0 °F 75% 29.74 in 10.0 mi ESE 4.6 mph - N/A   Clear
9:53 AM 73.9 °F - 64.9 °F 73% 29.75 in 10.0 mi Calm Calm - N/A   Clear
10:53 AM 78.1 °F - 63.0 °F 60% 29.74 in 10.0 mi WSW 5.8 mph - N/A   Clear
11:53 AM 80.1 °F 81.9 °F 64.9 °F 60% 29.75 in 10.0 mi Variable 5.8 mph - N/A   Clear
12:53 PM 82.0 °F 83.1 °F 63.0 °F 52% 29.74 in 10.0 mi South 6.9 mph - N/A   Clear
1:53 PM 84.0 °F 84.5 °F 62.1 °F 47% 29.73 in 10.0 mi WSW 8.1 mph - N/A   Scattered Clouds
2:53 PM 84.9 °F 85.4 °F 62.1 °F 46% 29.72 in 10.0 mi WSW 8.1 mph - N/A   Partly Cloudy
3:53 PM 84.9 °F 85.0 °F 61.0 °F 44% 29.72 in 10.0 mi West 4.6 mph - N/A   Scattered Clouds
4:53 PM 84.9 °F 85.4 °F 62.1 °F 46% 29.73 in 10.0 mi WNW 9.2 mph - N/A   Mostly Cloudy
5:53 PM 84.0 °F 84.5 °F 62.1 °F 47% 29.74 in 10.0 mi WNW 5.8 mph - N/A   Clear
6:53 PM 82.9 °F 84.0 °F 63.0 °F 51% 29.74 in 10.0 mi NNW 5.8 mph - N/A   Clear
7:53 PM 79.0 °F - 63.0 °F 58% 29.76 in 10.0 mi North 3.5 mph - N/A   Clear
8:53 PM 75.0 °F - 64.9 °F 71% 29.77 in 10.0 mi NNE 5.8 mph - N/A   Clear
9:53 PM 73.9 °F - 64.9 °F 73% 29.79 in 10.0 mi NE 6.9 mph - N/A   Clear
10:53 PM 72.0 °F - 64.9 °F 78% 29.79 in 10.0 mi NNE 6.9 mph - N/A   Clear
11:53 PM 72.0 °F - 64.0 °F 76% 29.79 in 10.0 mi NNE 6.9 mph - N/A   Mostly Cloudy